{"data":{"norad_id":63842,"epoch":"2026-05-24T22:58:17.730624Z","epoch_age_seconds":82026,"freshness":"FRESH","line1":"1 63842U 25093G   26144.95714966  .00008347  00000+0  31249-3 0  9999","line2":"2 63842  42.9978   7.4149 0001650 268.1147  91.9515 15.27582033 59415","mean_motion":15.27582033,"eccentricity":0.000165,"inclination_deg":42.9978,"raan_deg":7.4149,"arg_perigee_deg":268.1147,"mean_anomaly_deg":91.9515,"bstar":0.00031249,"rev_number":5941,"period_min":94.266623257672,"perigee_km":481.91091381163,"apogee_km":484.17510321444,"semimajor_km":6861.180008513,"source":"CELESTRAK","updated_at":"2026-05-25T13:38:20.147077Z"}}